When you browse on this site, cookies collect data to enhance your experience and personalize the content and advertising you see.
Visit our Privacy Policy to learn more. By continuing to use the site, you agree to this use of cookies and data.
  • In Belgium
  • List of Countries
  • For 7 days
  • Water Temperature
  • Satellite Maps
  • Weather Map
  • Weather Widgets
  • user-avatar
    Login

    Hourly Weather Shkoder

    Today, 18 July, Thursday

    Time Temperature Precipitation Wind Pressure Humidity
    00:00 +19°C° 0 mm 2 mps 737 mmHg 63%
    01:00 +19°C° 0 mm 2 mps 737 mmHg 66%
    02:00 +19°C° 0 mm 2 mps 737 mmHg 67%
    03:00 +18°C° 0 mm 2 mps 737 mmHg 68%
    04:00 +18°C° 0 mm 2 mps 737 mmHg 69%
    05:00 +20°C° 0 mm 2 mps 737 mmHg 66%
    06:00 +21°C° 0 mm 2 mps 737 mmHg 63%
    07:00 +24°C° 0 mm 1 mps 737 mmHg 59%
    08:00 +26°C° 0 mm 1 mps 737 mmHg 53%
    09:00 +27°C° 0 mm 1 mps 738 mmHg 48%
    10:00 +29°C° 0 mm 1 mps 738 mmHg 42%
    11:00 +30°C° 0 mm 1 mps 738 mmHg 40%
    12:00 +30°C° 0 mm 2 mps 738 mmHg 37%
    13:00 +31°C° 0 mm 2 mps 737 mmHg 35%
    14:00 +30°C° 0 mm 2 mps 737 mmHg 37%
    15:00 +30°C° 0 mm 3 mps 737 mmHg 40%
    16:00 +29°C° 0 mm 3 mps 737 mmHg 42%
    17:00 +27°C° 0 mm 2 mps 737 mmHg 49%
    18:00 +26°C° 0 mm 1 mps 737 mmHg 56%
    19:00 +24°C° 0 mm 1 mps 737 mmHg 63%
    20:00 +23°C° 0 mm 1 mps 738 mmHg 64%
    21:00 +22°C° 0 mm 1 mps 738 mmHg 65%
    22:00 +22°C° 0 mm 1 mps 739 mmHg 65%
    23:00 +21°C° 0 mm 1 mps 739 mmHg 65%

    Tomorrow, 19 July, Friday

    Time Temperature Precipitation Wind Pressure Humidity
    00:00 +21°C° 0 mm 1 mps 739 mmHg 65%
    01:00 +21°C° 0 mm 1 mps 739 mmHg 64%
    02:00 +20°C° 0 mm 1 mps 739 mmHg 64%
    03:00 +20°C° 0 mm 1 mps 739 mmHg 64%
    04:00 +20°C° 0 mm 1 mps 739 mmHg 64%
    05:00 +22°C° 0 mm 1 mps 739 mmHg 60%
    06:00 +23°C° 0 mm 1 mps 740 mmHg 57%
    07:00 +25°C° 0 mm 1 mps 740 mmHg 54%
    08:00 +27°C° 0 mm 1 mps 740 mmHg 50%
    09:00 +28°C° 0 mm 1 mps 740 mmHg 46%
    10:00 +30°C° 0 mm 1 mps 740 mmHg 42%
    11:00 +30°C° 0 mm 2 mps 740 mmHg 41%
    12:00 +31°C° 0 mm 2 mps 740 mmHg 39%
    13:00 +33°C° 0 mm 3 mps 740 mmHg 37%
    14:00 +31°C° 0.1 mm 3 mps 740 mmHg 38%
    15:00 +31°C° 0.1 mm 3 mps 740 mmHg 40%
    16:00 +30°C° 0.1 mm 3 mps 740 mmHg 42%
    17:00 +28°C° 0.1 mm 2 mps 740 mmHg 48%
    18:00 +26°C° 0.1 mm 1 mps 740 mmHg 55%
    19:00 +24°C° 0.1 mm 1 mps 740 mmHg 61%
    20:00 +24°C° 0 mm 1 mps 741 mmHg 63%
    21:00 +23°C° 0 mm 1 mps 741 mmHg 66%
    22:00 +22°C° 0 mm 1 mps 741 mmHg 68%
    23:00 +22°C° 0 mm 1 mps 741 mmHg 66%

    Day after tomorrow, 20 July, Saturday

    Time Temperature Precipitation Wind Pressure Humidity
    00:00 +22°C° 0 mm 1 mps 741 mmHg 65%
    01:00 +21°C° 0 mm 1 mps 741 mmHg 64%
    02:00 +21°C° 0 mm 1 mps 741 mmHg 64%
    03:00 +21°C° 0 mm 1 mps 741 mmHg 64%
    04:00 +21°C° 0 mm 1 mps 741 mmHg 65%
    05:00 +23°C° 0 mm 1 mps 741 mmHg 62%
    06:00 +24°C° 0 mm 1 mps 741 mmHg 58%
    07:00 +26°C° 0 mm 1 mps 741 mmHg 55%
    08:00 +28°C° 0 mm 1 mps 742 mmHg 51%
    09:00 +29°C° 0 mm 1 mps 742 mmHg 46%
    10:00 +31°C° 0 mm 1 mps 742 mmHg 42%
    11:00 +31°C° 0.1 mm 2 mps 742 mmHg 40%
    12:00 +32°C° 0.1 mm 2 mps 742 mmHg 39%
    13:00 +34°C° 0.1 mm 3 mps 742 mmHg 37%
    14:00 +32°C° 0.1 mm 2 mps 742 mmHg 38%
    15:00 +32°C° 0.1 mm 2 mps 741 mmHg 39%
    16:00 +32°C° 0.1 mm 2 mps 741 mmHg 40%
    17:00 +30°C° 0 mm 2 mps 741 mmHg 46%
    18:00 +28°C° 0 mm 1 mps 742 mmHg 52%
    19:00 +26°C° 0 mm 1 mps 742 mmHg 58%
    20:00 +25°C° 0 mm 1 mps 742 mmHg 59%
    21:00 +24°C° 0 mm 1 mps 743 mmHg 60%
    22:00 +24°C° 0 mm 1 mps 743 mmHg 62%
    23:00 +24°C° 0 mm 1 mps 743 mmHg 61%

    21 July, Sunday

    Time Temperature Precipitation Wind Pressure Humidity
    00:00 +23°C° 0 mm 1 mps 743 mmHg 61%
    01:00 +23°C° 0 mm 1 mps 742 mmHg 60%
    02:00 +23°C° 0 mm 1 mps 742 mmHg 61%
    03:00 +23°C° 0 mm 1 mps 742 mmHg 62%
    04:00 +23°C° 0 mm 1 mps 742 mmHg 63%
    05:00 +24°C° 0 mm 1 mps 742 mmHg 59%
    06:00 +26°C° 0 mm 1 mps 743 mmHg 56%
    07:00 +28°C° 0 mm 1 mps 743 mmHg 53%
    08:00 +30°C° 0 mm 1 mps 743 mmHg 48%
    09:00 +31°C° 0 mm 1 mps 743 mmHg 44%
    10:00 +33°C° 0 mm 1 mps 743 mmHg 39%
    11:00 +34°C° 0 mm 1 mps 743 mmHg 37%
    12:00 +35°C° 0 mm 1 mps 743 mmHg 35%
    13:00 +36°C° 0 mm 2 mps 743 mmHg 33%
    14:00 +36°C° 0 mm 2 mps 743 mmHg 34%
    15:00 +35°C° 0 mm 2 mps 743 mmHg 35%
    16:00 +35°C° 0 mm 2 mps 742 mmHg 37%
    17:00 +32°C° 0 mm 2 mps 742 mmHg 43%
    18:00 +30°C° 0 mm 1 mps 742 mmHg 49%
    19:00 +28°C° 0 mm 1 mps 742 mmHg 55%
    20:00 +27°C° 0 mm 1 mps 743 mmHg 55%
    21:00 +27°C° 0 mm 1 mps 743 mmHg 56%
    22:00 +26°C° 0 mm 2 mps 743 mmHg 57%
    23:00 +26°C° 0 mm 2 mps 743 mmHg 57%

    22 July, Monday

    Time Temperature Precipitation Wind Pressure Humidity
    00:00 +25°C° 0 mm 2 mps 743 mmHg 57%
    01:00 +25°C° 0 mm 2 mps 743 mmHg 58%
    02:00 +25°C° 0 mm 2 mps 743 mmHg 58%
    03:00 +25°C° 0 mm 2 mps 742 mmHg 59%
    04:00 +24°C° 0 mm 2 mps 742 mmHg 60%
    05:00 +26°C° 0 mm 2 mps 742 mmHg 57%
    06:00 +27°C° 0 mm 2 mps 742 mmHg 55%
    07:00 +29°C° 0 mm 1 mps 742 mmHg 52%
    08:00 +31°C° 0 mm 2 mps 743 mmHg 47%
    09:00 +32°C° 0 mm 2 mps 743 mmHg 41%
    10:00 +35°C° 0 mm 2 mps 743 mmHg 36%
    11:00 +36°C° 0 mm 2 mps 742 mmHg 33%
    12:00 +37°C° 0 mm 2 mps 742 mmHg 30%
    13:00 +38°C° 0 mm 2 mps 742 mmHg 28%
    14:00 +37°C° 0 mm 2 mps 741 mmHg 28%
    15:00 +37°C° 0 mm 2 mps 741 mmHg 29%
    16:00 +37°C° 0 mm 2 mps 741 mmHg 30%
    17:00 +35°C° 0 mm 2 mps 741 mmHg 36%
    18:00 +31°C° 0 mm 1 mps 741 mmHg 43%
    19:00 +29°C° 0 mm 1 mps 741 mmHg 50%
    20:00 +28°C° 0 mm 1 mps 741 mmHg 50%
    21:00 +28°C° 0 mm 1 mps 741 mmHg 51%
    22:00 +27°C° 0 mm 2 mps 741 mmHg 52%
    23:00 +27°C° 0 mm 2 mps 741 mmHg 53%

    23 July, Tuesday

    Time Temperature Precipitation Wind Pressure Humidity
    00:00 +26°C° 0 mm 2 mps 741 mmHg 55%
    01:00 +26°C° 0 mm 2 mps 741 mmHg 56%
    02:00 +25°C° 0 mm 2 mps 740 mmHg 57%
    03:00 +25°C° 0 mm 2 mps 740 mmHg 58%
    04:00 +25°C° 0 mm 2 mps 740 mmHg 58%
    05:00 +26°C° 0 mm 2 mps 740 mmHg 56%
    06:00 +28°C° 0 mm 1 mps 740 mmHg 53%
    07:00 +30°C° 0 mm 1 mps 740 mmHg 51%
    08:00 +31°C° 0 mm 1 mps 740 mmHg 46%
    09:00 +33°C° 0 mm 1 mps 740 mmHg 41%
    10:00 +35°C° 0 mm 1 mps 740 mmHg 37%
    11:00 +35°C° 0.1 mm 1 mps 740 mmHg 36%
    12:00 +36°C° 0.1 mm 2 mps 740 mmHg 36%
    13:00 +37°C° 0.1 mm 2 mps 739 mmHg 35%
    14:00 +35°C° 0.2 mm 2 mps 739 mmHg 40%
    15:00 +34°C° 0.2 mm 2 mps 739 mmHg 45%
    16:00 +31°C° 0.2 mm 2 mps 739 mmHg 51%
    17:00 +30°C° 0.1 mm 2 mps 739 mmHg 56%
    18:00 +29°C° 0.1 mm 3 mps 739 mmHg 61%
    19:00 +27°C° 0.1 mm 3 mps 739 mmHg 66%
    20:00 +26°C° 0 mm 3 mps 739 mmHg 69%
    21:00 +25°C° 0 mm 3 mps 739 mmHg 71%
    22:00 +24°C° 0 mm 3 mps 740 mmHg 74%
    23:00 +24°C° 0 mm 3 mps 739 mmHg 74%
    Show more